sat.trackr.live / text

‹ back to catalog

TRANSPORTER-14 OBJECT BR

NORAD 69093 · 2025-135BW

PAYLOAD ACTIVE UNKNOWN

§ Identity

Operator
Country
US
Launch date
2025-06-23
Launch site
AFWTR
Launch vehicle
Mass (kg)
RCS (m²)

External: N2YO · Heavens-Above · Gunter

§ Orbital elements

Epoch: 2026-05-25T00:47:03.043104Z

Period
91.84 min
Inclination
97.4290°
Eccentricity
0.0315188
Mean motion
15.67912809 rev/d
Perigee alt
152.3 km
Apogee alt
577.4 km
Semi-major
6,743.0 km
B*
5.7385e-4
RAAN
256.3610°
Arg perigee
163.5736°
Mean anomaly
197.6030°
Rev number
313

§ Raw data

TRANSPORTER-14 OBJECT BR1 69093U 25135BW  26145.03267411  .02479562  19251-5  57385-3 0  99942 69093  97.4290 256.3610 0315188 163.5736 197.6030 15.67912809  3131

JSON: /api/v1/satellites/69093 · /tle

For live sub-satellite position, see the globe view (requires WebGL).

§ Visibility from observer

Set your observer location to see the next 7 days of passes ≥ 10°. The values pass through the URL so the page stays shareable.

No JS? Fill the form by hand. The geolocation button needs JavaScript.